Temp
11 11 11 11 11 11 11 11 11 11 10 10 10 10 10 10 10 10 10 10 10 10 10 10 10 10 10 10 10 10 10 10 10 10 10 10 10 10 10 11 11 11 11 11 11 11 11 11 10 10 10 10 9 9 9 9 9 9 9 9 9 10 10 10 11 11 11 11 11
11 11 11 11 11 11 11 10 10 10 10 10 10 10 10 10 10 10 10 10 10 10 10 10 10 10 10 10 10 10 10 10 10 10 10 10 10 10 10 10 10 10 11 11 11 10 10 10 10 10 10 9 9 9 9 9 9 8 8 8 8 9 9 10 10 11 11 11 11
11 11 11 11 11 10 10 10 10 10 10 10 10 10 10 10 10 10 10 10 10 10 10 10 10 10 10 10 10 10 10 10 10 10 10 10 10 10 10 10 10 10 10 10 10 10 10 10 10 10 9 9 9 9 8 8 8 8 8 8 8 8 8 9 10 10 10 11 11
11 11 11 11 10 10 10 10 10 10 10 10 10 10 10 10 10 10 10 10 10 10 10 10 10 10 10 10 10 10 10 10 10 10 10 10 10 9 9 9 10 10 10 10 10 10 10 10 9 9 9 9 8 8 8 8 8 7 7 7 7 8 8 8 9 9 10 10 10
11 11 10 10 10 10 10 10 10 10 10 10 10 10 10 10 10 10 10 10 10 10 10 10 10 10 10 10 10 10 10 10 10 9 9 9 9 9 9 9 9 9 9 9 9 9 9 9 9 9 9 8 8 8 8 8 7 7 7 7 7 7 7 8 8 9 9 10 10
11 10 10 10 10 10 10 10 10 10 10 10 10 10 10 10 10 10 10 10 10 10 10 10 10 10 10 10 10 10 9 9 9 9 9 9 9 9 9 9 9 9 9 9 9 9 9 9 9 9 8 8 8 8 8 7 7 7 7 7 7 7 7 7 8 8 9 9 10
10 10 10 10 10 10 10 10 9 9 9 9 9 9 9 9 9 9 9 10 10 10 10 10 10 10 10 9 9 9 9 9 9 9 9 9 9 9 8 8 8 8 8 8 8 9 9 9 9 8 8 8 7 7 7 7 7 7 7 7 7 7 7 7 7 8 8 9 9
10 10 10 10 10 9 9 9 9 9 9 9 9 9 9 9 9 9 9 9 9 9 9 9 9 9 9 9 9 9 9 9 9 9 9 8 8 8 8 8 8 8 8 8 8 8 8 8 8 8 8 7 7 7 7 7 7 6 6 6 6 6 6 7 7 7 8 8 8
10 10 10 10 9 9 9 9 9 9 9 9 9 9 9 9 9 9 9 9 9 9 9 9 9 9 9 9 9 9 9 9 9 8 8 8 8 8 8 8 8 8 8 8 8 8 8 8 8 8 7 7 7 7 7 6 6 6 6 6 6 6 6 6 7 7 7 8 8
10 10 10 10 9 9 9 9 9 9 9 9 9 9 9 9 9 9 9 9 9 9 9 9 9 9 9 9 9 9 9 9 8 8 8 8 8 7 7 7 7 7 7 7 7 7 7 7 7 7 7 7 7 7 6 6 6 6 6 6 6 6 6 6 7 7 7 7 8
10 10 10 9 9 9 9 9 9 9 9 9 9 9 9 9 9 9 9 9 9 9 9 9 9 9 9 9 9 9 8 8 8 8 8 7 7 7 7 7 7 7 6 7 7 7 7 7 7 7 7 7 7 6 6 6 6 5 5 5 5 5 6 6 6 7 7 7 7
10 10 9 9 9 9 9 9 9 9 9 8 8 8 8 8 8 8 8 9 9 9 9 9 9 9 9 8 8 8 8 8 8 8 7 7 7 7 7 6 6 6 6 6 6 6 6 6 6 6 7 7 7 6 6 6 6 5 5 5 5 5 5 6 6 6 7 7 7
10 10 9 9 9 9 9 9 9 8 8 8 8 8 8 8 8 8 8 8 8 8 8 8 8 8 8 8 8 8 8 8 7 7 7 7 7 7 6 6 6 6 6 6 6 6 6 6 6 6 6 6 6 6 6 6 5 5 5 5 5 5 5 5 6 6 6 6 7
10 9 9 9 9 9 9 9 8 8 8 8 8 8 8 8 8 8 8 8 8 8 8 8 8 8 8 8 8 8 7 7 7 7 7 7 6 6 6 6 6 6 5 5 5 5 5 5 5 6 6 6 6 6 6 6 6 5 5 5 5 5 5 5 5 6 6 6 7
9 9 9 9 9 9 9 8 8 8 8 8 8 8 8 8 8 8 8 8 8 8 8 8 8 8 7 7 7 7 7 7 7 7 7 6 6 6 6 6 6 5 5 5 5 5 5 5 5 5 5 5 5 6 6 6 6 5 5 5 5 5 5 5 5 6 6 6 6
9 9 9 9 9 9 8 8 8 8 8 8 8 8 8 8 8 8 7 7 7 7 7 7 7 7 7 7 7 7 7 7 7 6 6 6 6 6 6 6 5 5 5 5 5 5 5 5 5 5 5 5 5 5 5 6 6 6 5 5 5 5 5 5 5 5 6 6 6
9 9 9 9 9 8 8 8 8 8 8 8 8 8 8 7 7 7 7 7 7 7 7 7 7 7 7 7 7 7 7 6 6 6 6 6 6 6 5 5 5 5 5 5 5 5 5 5 5 5 5 5 5 5 5 5 5 5 5 5 5 5 5 5 5 5 6 6 6
9 9 9 8 8 8 8 8 8 8 8 8 7 7 7 7 7 7 7 7 7 7 7 7 7 7 7 7 6 6 6 6 6 6 6 6 6 5 5 5 5 5 5 4 4 4 4 4 4 4 4 4 5 5 5 5 5 5 5 5 5 4 4 4 5 5 5 5 6
8 8 8 8 8 8 8 8 8 7 7 7 7 7 7 7 7 7 7 7 7 7 7 6 6 6 6 6 6 6 6 6 6 6 6 6 5 5 5 5 5 5 4 4 4 4 4 4 4 4 4 4 4 4 5 5 5 5 5 5 4 4 4 4 4 5 5 5 5
8 8 8 8 8 8 8 7 7 7 7 7 7 7 7 7 7 7 7 7 7 6 6 6 6 6 6 6 6 6 6 6 6 6 5 5 5 5 5 5 4 4 4 4 4 4 4 4 4 4 4 4 4 4 4 5 5 5 5 5 4 4 4 4 4 4 5 5 5
8 8 8 8 8 7 7 7 7 7 7 7 7 7 7 7 7 6 6 6 6 6 6 6 6 6 6 6 6 6 6 6 5 5 5 5 5 5 5 4 4 4 4 4 4 3 3 3 3 3 3 3 4 4 4 4 5 5 5 5 4 4 4 4 4 4 4 4 5
8 8 8 7 7 7 7 7 7 7 7 7 7 6 6 6 6 6 6 6 6 6 6 6 6 6 6 5 5 5 5 5 5 5 5 5 4 4 4 4 4 4 4 3 3 3 3 3 3 3 3 3 3 4 4 4 4 4 4 4 4 4 4 4 4 4 4 4 4
7 7 7 7 7 7 7 7 7 7 6 6 6 6 6 6 6 6 6 6 6 6 6 6 5 5 5 5 5 5 5 5 5 4 4 4 4 4 4 4 4 3 3 3 3 3 3 3 3 3 3 3 3 3 4 4 4 4 4 4 4 4 4 4 4 4 4 4 4
7 7 7 7 7 6 6 6 6 6 6 6 6 6 6 6 6 6 6 6 6 5 5 5 5 5 5 5 5 4 4 4 4 4 4 4 4 4 4 3 3 3 3 3 3 2 2 2 2 2 2 3 3 3 4 4 4 4 4 4 4 4 3 3 3 3 3 3 3
6 6 6 6 6 6 6 6 6 6 6 6 6 6 6 6 6 6 5 5 5 5 5 5 5 5 4 4 4 4 4 4 4 4 4 4 3 3 3 3 3 3 2 2 2 2 2 2 2 2 2 2 2 3 3 4 4 4 4 4 4 3 3 3 3 3 3 3 3
6 6 6 6 6 6 6 6 6 6 6 6 6 5 5 5 5 5 5 5 5 5 5 4 4 4 4 4 4 4 4 3 3 3 3 3 3 3 3 2 2 2 2 2 2 2 2 2 2 2 2 2 2 2 3 3 4 4 4 4 4 3 3 3 3 2 2 2 2
6 6 5 5 5 5 5 5 5 5 5 5 5 5 5 5 5 5 4 4 4 4 4 4 3 3 3 3 3 3 3 3 3 3 3 3 3 2 2 2 2 2 2 2 2 2 2 2 2 2 2 2 2 2 3 3 3 4 4 4 3 3 3 3 2 2 2 2 2
5 5 5 5 5 5 5 5 5 5 5 5 4 4 4 4 4 4 3 3 3 3 3 3 3 3 3 3 3 3 3 3 3 3 2 2 2 2 2 2 2 2 2 2 2 2 2 2 2 2 2 2 2 3 3 3 3 4 4 3 3 3 3 2 2 2 1 1 1
5 4 4 4 4 4 4 4 4 4 4 4 3 3 3 3 3 3 2 2 2 2 2 2 2 2 2 2 2 2 2 2 2 2 2 2 2 2 2 2 2 2 2 2 2 2 2 2 2 2 2 2 2 2 3 3 3 4 3 3 3 3 2 2 2 2 1 1 1
4 4 4 3 3 3 3 3 3 3 3 2 2 2 2 2 2 2 2 1 1 2 2 2 2 2 2 2 2 2 2 2 2 2 2 1 2 2 1 1 1 1 1 1 1 1 1 1 1 1 1 1 1 2 2 3 3 3 3 3 2 2 2 2 2 1 1 1 1
3 3 3 3 2 2 2 2 2 2 1 1 1 1 1 1 1 1 1 1 1 1 1 1 1 1 1 1 1 1 1 1 1 1 1 1 1 1 1 1 1 1 1 1 1 1 1 1 1 1 1 1 1 1 2 2 3 3 3 3 2 2 2 2 1 1 1 1 1
2 2 2 2 1 1 1 1 1 1 1 0 0 0 0 0 0 0 0 0 0 0 0 0 0 0 0 1 1 1 1 1 1 1 1 1 1 1 1 1 1 1 1 1 1 1 1 1 1 1 1 1 1 1 1 2 2 3 3 3 2 2 2 2 1 1 1 1 1
2 1 1 1 1 0 0 0 0 -0 -0 -0 -0 -0 -0 -0 -0 -0 -0 -0 -0 -0 -0 -0 -0 -0 -0 -0 0 0 0 0 0 0 0 0 0 1 1 1 1 1 1 1 1 1 1 1 1 1 1 1 1 1 1 2 2 3 3 2 2 2 2 1 1 1 1 1 1
1 1 0 -0 -0 -0 -0 -1 -1 -1 -1 -1 -1 -1 -1 -1 -1 -1 -1 -1 -1 -1 -1 -1 -1 -1 -1 -0 -0 -0 -0 -0 -0 -0 0 0 0 0 0 0 0 0 0 0 0 0 0 0 0 0 0 1 1 1 1 2 2 2 2 2 2 1 1 1 1 1 1 1 0
0 -0 -1 -1 -1 -1 -1 -1 -1 -1 -1 -1 -2 -2 -2 -2 -2 -2 -1 -1 -1 -1 -1 -1 -1 -1 -1 -1 -1 -1 -0 -0 -0 -0 -0 -0 0 0 0 0 0 0 0 0 0 0 0 0 0 0 0 1 1 1 1 2 2 2 2 1 1 1 1 1 1 0 0 0 0
-1 -1 -1 -1 -1 -1 -1 -2 -2 -2 -2 -2 -2 -2 -2 -2 -2 -2 -2 -2 -2 -2 -1 -1 -1 -1 -1 -1 -1 -1 -1 -1 -0 -0 -0 -0 -0 -0 -0 -0 -0 -0 -0 -0 -0 -0 -0 0 0 0 0 1 1 1 1 1 1 1 1 1 1 1 0 0 0 0 0 -0 -0
-1 -1 -2 -2 -2 -2 -2 -2 -2 -2 -2 -2 -2 -2 -2 -2 -2 -2 -2 -2 -2 -2 -2 -2 -2 -2 -1 -1 -1 -1 -1 -1 -1 -1 -1 -1 -1 -1 -1 -1 -1 -0 -0 -0 -0 -0 -0 0 0 0 0 1 1 1 1 1 1 0 0 0 -0 -0 -0 -0 -0 -0 -0 -0 -1
-2 -2 -2 -2 -2 -2 -2 -2 -2 -2 -2 -2 -3 -3 -3 -3 -2 -2 -2 -2 -2 -2 -2 -2 -2 -2 -2 -2 -2 -2 -1 -1 -1 -1 -1 -1 -1 -1 -1 -1 -1 -1 -1 -0 -0 -0 -0 0 0 0 0 0 0 0 0 -0 -0 -0 -1 -1 -1 -1 -1 -1 -1 -1 -1 -1 -1
-2 -2 -2 -2 -2 -2 -2 -3 -3 -3 -3 -3 -3 -3 -3 -3 -3 -3 -3 -3 -3 -2 -2 -2 -2 -2 -2 -2 -2 -2 -2 -2 -2 -1 -1 -1 -1 -1 -1 -1 -1 -1 -0 -0 -0 -0 -0 0 0 0 0 0 0 -0 -0 -0 -1 -1 -1 -1 -1 -1 -1 -1 -1 -2 -2 -2 -2
-2 -2 -3 -3 -3 -3 -3 -3 -3 -3 -3 -3 -3 -3 -3 -3 -3 -3 -3 -3 -3 -3 -3 -3 -2 -2 -2 -2 -2 -2 -2 -2 -2 -2 -1 -1 -1 -1 -1 -1 -1 -1 -0 -0 -0 -0 0 0 0 0 0 -0 -0 -0 -1 -1 -1 -1 -1 -1 -2 -2 -2 -2 -2 -2 -2 -2 -2
-3 -3 -3 -3 -3 -3 -3 -3 -3 -3 -3 -3 -3 -3 -3 -3 -3 -3 -3 -3 -3 -3 -3 -3 -3 -3 -2 -2 -2 -2 -2 -2 -2 -2 -1 -1 -1 -1 -1 -1 -1 -0 -0 -0 -0 0 0 0 0 -0 -0 -0 -0 -1 -1 -1 -1 -1 -1 -2 -2 -2 -2 -2 -2 -2 -2 -3 -3
Height
781 780 780 779 779 778 778 777 777 776 776 775 774 773 772 771 770 769 768 768 767 766 765 764 762 761 760 759 758 757 756 755 754 754 753 752 751 751 750 750 749 749 748 748 747 747 746 746 745 745 744 744 744 743 743 744 744 744 744 744 744 744 743 743 742 742 742 741 741
780 780 779 779 778 778 777 776 776 775 775 774 774 773 772 770 770 768 767 767 766 765 764 763 762 761 760 759 758 756 755 754 753 752 751 750 750 749 749 748 748 747 747 746 746 745 745 744 744 743 742 742 742 742 741 742 742 743 743 743 743 743 743 742 741 741 740 740 739
780 779 778 778 777 777 776 775 775 775 774 773 772 772 771 770 769 767 766 765 765 764 763 762 761 760 759 758 757 756 755 754 752 751 750 749 748 748 747 747 746 745 745 745 744 743 743 742 742 741 741 740 740 740 740 740 740 741 741 741 742 742 742 741 740 740 740 739 738
779 778 777 777 776 776 775 775 774 774 773 772 771 770 770 769 767 766 765 764 763 762 761 760 760 759 758 757 756 755 754 753 752 750 749 748 747 747 746 745 745 744 743 743 742 742 741 741 740 740 739 739 739 738 738 738 739 739 739 740 740 741 740 740 739 739 738 738 737
778 777 777 776 775 775 774 774 773 773 772 771 770 769 768 767 766 765 764 763 762 761 760 759 758 757 756 755 755 754 753 752 751 750 749 747 746 746 745 744 744 743 742 742 741 740 740 740 739 738 738 737 737 736 736 737 737 737 737 738 738 739 739 739 738 738 737 736 735
777 776 775 775 775 774 774 773 773 772 771 770 769 768 767 766 765 764 763 761 760 759 758 757 756 755 755 754 753 752 751 750 750 749 748 746 745 745 744 743 743 742 741 740 740 739 739 738 737 737 736 736 736 735 735 735 735 735 735 736 736 737 737 737 737 737 736 735 735
775 775 774 774 773 773 772 772 772 771 770 769 768 767 766 765 764 763 761 760 759 758 757 756 755 754 753 752 751 750 750 749 748 747 746 745 745 744 743 742 741 741 740 740 739 738 738 737 736 735 734 734 733 733 733 734 734 733 733 734 734 735 735 735 735 735 735 734 733
774 773 773 772 772 772 771 771 770 770 769 768 767 765 765 764 762 761 760 759 758 756 755 754 753 752 751 750 750 749 748 747 746 745 745 744 743 742 742 741 740 740 739 739 738 737 736 736 735 734 733 732 731 731 731 731 731 731 731 731 731 732 733 733 734 734 733 733 732
772 771 771 771 770 770 770 769 769 768 767 766 765 764 763 762 761 760 759 757 756 755 754 753 752 751 750 749 748 747 746 745 744 743 743 742 742 741 740 740 739 738 738 737 737 736 735 735 734 733 732 731 730 729 729 729 729 729 729 729 729 729 730 731 731 731 731 731 730
770 769 769 769 769 768 768 767 766 766 765 764 763 763 762 761 760 759 757 756 755 754 752 751 750 749 748 747 746 745 744 743 742 741 741 740 740 739 739 738 738 737 736 736 735 735 734 733 732 731 730 729 728 728 727 727 727 726 726 726 726 726 727 728 729 729 729 729 728
768 767 767 767 766 766 766 765 765 764 763 762 761 761 760 759 758 757 756 755 753 752 751 750 749 748 747 745 745 744 743 742 741 740 739 738 738 737 737 736 736 735 735 734 734 733 733 732 730 729 728 728 727 726 725 725 725 724 724 723 723 724 724 725 726 726 727 726 726
766 765 765 765 765 764 764 763 762 762 761 760 760 759 758 757 756 755 754 753 752 750 749 748 747 746 745 744 743 742 741 740 739 739 738 737 736 735 735 735 734 733 733 732 732 732 731 730 729 728 726 725 725 724 723 723 723 722 722 721 721 721 721 722 723 723 724 724 723
765 764 763 763 762 762 761 761 760 760 759 758 757 757 756 755 754 753 752 751 750 748 747 746 745 745 743 742 741 740 740 739 738 737 736 735 735 734 733 733 732 731 731 730 730 730 729 728 727 726 725 723 723 722 721 721 720 720 719 719 719 719 718 719 720 720 720 721 720
763 762 761 761 760 760 759 759 758 757 757 756 755 755 754 753 752 751 750 749 748 746 745 744 743 743 742 741 740 739 738 737 736 735 735 734 733 732 731 731 730 730 729 728 728 728 727 726 725 724 723 721 720 719 719 719 718 717 717 716 716 716 715 716 717 717 718 718 717
761 760 759 759 758 758 757 756 756 755 755 754 753 752 751 750 750 749 748 747 745 745 744 742 741 740 740 739 738 737 736 735 735 734 733 732 731 730 730 729 728 728 727 726 726 725 725 724 723 722 721 720 718 717 716 716 715 715 714 714 713 713 713 713 714 714 715 715 715
759 758 757 757 756 755 755 755 754 753 752 751 750 750 749 748 747 747 746 745 743 742 741 740 739 738 737 736 735 735 734 733 732 731 730 730 729 728 727 727 726 725 725 724 724 723 722 722 721 720 719 718 716 715 714 713 712 711 711 710 710 710 710 710 710 711 712 712 712
757 757 756 755 754 754 753 752 752 751 750 749 748 747 747 746 745 744 743 742 741 740 739 738 737 736 735 734 733 732 732 730 730 729 728 727 726 725 725 724 724 723 723 722 721 720 720 719 719 718 717 715 714 713 711 710 709 708 707 707 706 706 706 706 707 708 708 709 709
756 755 755 754 753 752 751 750 750 749 748 747 746 745 744 743 742 741 740 740 739 737 736 735 734 733 732 731 730 730 729 728 727 726 725 725 724 723 722 721 721 720 720 720 719 718 717 716 716 715 714 713 712 710 709 708 706 705 704 704 703 703 704 704 704 705 705 706 706
755 755 754 753 751 750 749 748 747 746 745 745 743 742 741 740 740 739 738 736 736 735 734 732 731 730 730 729 728 727 726 725 724 723 722 722 721 720 720 719 718 718 718 717 716 715 715 714 713 712 711 710 709 708 706 705 704 703 702 701 700 700 701 701 702 702 703 703 703
754 753 752 751 750 749 747 746 745 744 743 742 741 740 739 738 737 736 735 734 733 732 731 730 728 727 726 725 725 724 723 722 721 720 719 719 718 717 717 716 715 715 715 714 714 713 712 711 710 710 709 708 706 705 704 702 701 700 699 698 698 697 698 698 699 699 700 700 700
751 751 750 749 748 747 745 744 743 742 740 739 738 737 735 735 734 733 731 730 730 729 728 726 725 725 723 722 721 720 720 719 718 717 716 716 715 715 714 714 713 712 712 711 711 710 709 708 708 707 706 705 704 702 701 700 698 697 696 695 694 694 694 695 696 696 697 697 697
749 748 748 747 745 744 743 742 740 739 738 736 735 734 733 731 730 730 729 727 727 725 725 723 722 721 720 720 718 717 716 716 715 714 713 713 712 711 711 711 710 710 709 708 707 707 706 705 705 704 703 702 700 699 698 697 695 694 693 692 692 691 691 692 693 693 694 694 694
747 746 745 744 743 742 740 739 738 736 735 734 732 731 730 729 727 726 725 725 723 722 721 720 719 718 717 716 715 714 713 712 712 711 710 710 709 708 708 708 707 706 705 705 704 704 703 702 701 700 700 699 697 696 695 694 693 691 690 690 689 689 689 689 690 690 691 691 691
746 745 744 742 741 740 738 737 735 734 732 731 730 728 727 726 725 724 722 721 720 719 718 717 716 715 714 713 712 711 710 709 708 707 707 706 706 705 705 704 704 703 702 701 700 700 699 699 698 697 696 696 695 693 692 690 689 688 688 687 687 686 687 687 687 688 688 689 689
744 743 741 740 739 737 736 734 733 731 730 728 727 726 725 723 722 720 719 718 717 716 715 714 712 711 711 710 709 708 707 706 705 704 703 703 702 702 701 701 700 699 698 697 696 695 695 695 695 694 693 693 691 690 689 688 686 685 685 684 684 684 684 684 685 685 685 686 686
742 741 740 738 737 735 734 732 730 729 727 726 725 723 722 720 719 718 716 715 714 713 712 710 710 709 708 707 706 705 704 703 702 701 700 700 699 698 697 697 696 695 694 693 692 691 691 691 691 691 690 690 688 687 685 684 683 682 681 681 680 681 681 682 682 683 683 684 684
740 739 738 736 735 733 731 730 728 726 725 724 722 721 720 718 717 715 714 713 711 710 709 708 707 705 705 704 703 701 700 700 699 698 697 696 695 695 694 693 692 691 690 689 688 687 687 687 687 687 686 686 685 683 681 680 679 678 677 677 677 677 678 679 679 680 681 682 683
739 737 736 734 733 731 729 728 726 725 723 722 720 719 717 716 715 713 712 710 709 708 706 705 704 703 702 701 700 699 697 696 696 695 694 693 692 691 690 688 687 686 685 685 684 684 683 683 683 683 683 683 682 680 678 676 675 674 673 673 673 674 675 675 676 677 679 680 681
737 736 734 733 731 729 728 726 725 723 721 720 719 717 715 714 713 711 710 708 707 705 704 703 701 700 699 698 697 695 694 693 692 691 690 689 688 687 685 684 683 682 681 681 680 680 679 679 679 678 679 679 679 677 675 673 672 670 670 669 669 670 671 672 673 675 676 677 679
736 734 733 731 729 728 726 725 723 721 720 719 717 715 714 712 710 709 707 706 705 703 702 701 700 698 696 695 694 692 691 690 689 688 687 685 684 682 681 680 679 678 677 676 676 675 675 675 674 674 674 674 674 674 673 671 669 668 667 666 666 666 668 669 670 672 673 675 676
735 733 731 730 728 726 725 723 721 720 718 717 715 714 712 710 709 707 705 704 702 701 699 698 697 695 693 691 690 689 688 686 685 684 683 682 680 678 677 676 675 673 672 672 671 671 670 670 670 669 669 669 670 670 669 667 666 665 664 663 663 664 665 666 667 669 670 672 674
733 731 730 728 726 725 723 721 720 718 717 715 713 712 710 708 706 705 703 702 700 698 697 695 694 691 690 688 687 685 684 683 681 680 679 678 676 675 673 671 670 669 668 667 667 666 666 665 665 664 664 664 665 665 664 664 663 662 661 660 660 661 662 664 665 666 667 669 670
732 730 728 727 725 723 721 720 718 716 715 713 711 710 708 706 704 702 701 699 698 696 694 692 690 688 686 685 683 682 680 679 677 676 675 674 673 671 669 667 665 664 663 662 662 661 661 660 660 659 659 659 660 660 659 659 658 658 657 656 656 657 659 661 662 663 665 666 668
730 729 727 725 723 721 719 717 716 714 712 711 709 707 705 704 702 700 698 696 695 693 691 689 687 685 683 681 680 678 676 675 673 672 671 670 669 667 665 662 660 659 658 658 657 657 656 655 655 655 654 654 655 654 654 654 653 653 652 653 653 655 656 658 660 661 663 664 666
729 727 725 723 721 719 717 715 714 712 710 708 706 704 703 701 700 698 696 694 692 690 688 686 684 682 680 678 676 675 673 671 670 668 667 666 665 663 660 658 655 654 653 653 653 652 651 651 650 650 650 650 650 649 649 649 648 648 649 650 651 652 655 657 659 660 662 664 665
728 726 724 722 720 717 715 713 711 710 708 706 704 702 700 698 697 695 693 691 689 687 685 682 680 679 677 675 673 671 670 668 666 665 664 662 661 659 656 653 650 649 648 648 648 647 646 646 645 645 645 645 645 645 645 644 645 645 646 647 649 650 653 655 658 660 661 663 665
727 725 723 720 718 715 714 711 710 707 705 703 701 700 698 695 694 692 690 689 687 684 681 679 677 675 673 671 670 668 666 665 664 662 660 659 657 655 652 649 646 644 643 643 643 642 641 641 640 640 641 642 642 641 641 641 642 643 644 645 647 649 651 654 656 659 660 662 664
725 723 721 719 716 714 712 710 708 705 703 701 699 697 695 693 691 689 687 686 684 681 678 676 674 672 670 668 666 664 662 661 660 659 656 654 653 651 648 645 641 639 638 638 637 637 636 636 635 636 637 638 638 638 638 639 640 641 643 645 646 648 650 653 655 658 660 662 664
723 722 720 717 715 712 710 708 705 703 701 699 696 694 692 690 689 686 684 683 681 678 675 673 670 668 666 665 663 660 658 657 656 655 653 650 648 646 644 641 637 634 634 633 633 632 631 631 631 631 632 633 634 634 635 636 638 640 642 643 645 648 650 653 655 658 660 663 665
722 720 718 716 713 711 708 706 704 701 699 697 695 692 690 688 685 683 681 680 678 675 673 670 667 665 663 661 660 657 654 652 651 650 648 646 643 641 639 636 633 630 629 628 628 627 626 626 627 627 628 629 630 631 633 634 636 638 640 642 645 647 650 654 656 659 661 664 666
720 718 716 714 712 710 707 704 701 699 697 695 692 690 687 685 683 680 678 676 674 672 670 667 664 661 660 658 656 654 651 648 646 645 644 642 639 637 634 632 629 626 624 623 622 622 622 622 623 624 625 626 628 629 631 632 634 637 639 641 644 647 650 654 657 660 663 665 668
Wind_Speed
16 16 16 15 15 15 16 17 18 19 20 21 22 23 23 24 24 25 26 26 26 26 27 28 29 30 31 32 32 33 33 33 33 33 32 31 31 31 31 31 31 32 33 33 33 34 34 33 33 32 31 30 28 27 26 25 24 24 24 24 24 24 24 24 26 29 32 32 30
17 16 16 15 15 16 17 18 19 20 21 22 23 24 25 25 25 26 26 26 26 27 27 28 29 30 31 31 32 32 33 34 34 34 33 32 32 31 31 32 32 32 33 33 34 33 32 32 31 31 30 29 29 28 27 27 25 24 24 24 24 24 23 23 24 26 29 31 32
18 17 16 16 16 17 18 19 21 22 24 25 26 26 27 27 27 26 26 27 27 27 28 28 29 29 30 31 31 32 32 33 33 33 32 32 31 31 31 31 32 32 33 33 33 32 31 30 29 29 28 27 28 28 28 27 26 25 23 23 23 23 23 23 23 24 26 28 30
18 17 16 16 17 18 19 21 23 24 26 27 28 28 28 28 28 28 28 28 28 28 28 29 29 30 30 30 30 30 31 31 31 30 30 30 30 30 30 30 31 31 32 32 32 31 30 29 28 27 27 28 27 27 27 26 25 24 23 22 23 23 24 24 23 24 25 27 28
18 17 17 17 18 19 20 22 24 25 26 28 28 29 29 29 29 29 29 29 29 29 30 30 30 31 30 30 30 29 28 28 28 28 28 29 29 29 29 29 30 30 31 31 31 31 30 29 28 27 27 26 27 27 27 26 25 25 24 23 23 22 23 23 24 24 24 26 27
18 17 17 18 19 20 21 22 24 25 27 28 29 29 29 29 29 29 30 30 30 31 31 31 31 31 31 30 29 28 27 26 26 27 28 29 29 30 30 30 30 30 30 30 31 30 30 30 29 28 27 26 26 27 27 26 26 25 24 24 23 23 22 22 23 23 24 25 27
18 18 18 18 19 20 21 23 24 26 27 28 29 29 30 30 30 31 31 31 32 32 32 32 32 31 30 29 28 27 26 26 26 27 28 29 30 31 31 31 31 31 30 30 30 30 30 30 30 30 29 28 27 27 27 26 26 25 25 24 25 24 23 23 23 23 23 25 27
18 18 18 19 20 20 22 23 24 26 27 28 28 29 30 31 31 32 32 32 32 32 32 32 31 31 30 29 28 27 27 27 27 27 28 28 29 31 31 32 32 32 31 30 30 29 29 29 29 30 29 29 28 28 27 27 26 26 26 26 26 25 24 24 24 24 24 25 27
18 18 19 19 20 21 22 23 24 25 26 28 29 30 30 31 32 32 32 32 32 32 32 31 31 30 30 29 29 28 28 28 28 28 28 28 29 30 31 31 32 32 32 31 30 29 29 29 29 29 29 28 28 28 29 28 28 27 27 27 26 26 25 25 25 25 26 26 27
18 18 19 20 21 22 22 23 24 25 26 27 28 29 30 31 32 32 32 32 32 32 31 31 31 30 30 29 29 29 29 29 29 29 29 29 29 29 30 30 31 31 31 31 31 30 30 29 29 29 29 29 29 30 30 30 29 28 28 28 27 27 27 27 27 28 28 28 28
18 18 19 20 21 22 23 23 24 25 26 27 28 29 30 31 31 32 32 32 32 32 31 31 30 30 30 30 30 30 30 30 30 30 30 30 30 30 30 30 30 30 31 31 31 31 31 30 29 30 30 30 29 30 30 30 30 29 29 29 28 28 28 28 29 29 29 29 29
20 20 20 21 22 23 23 24 24 25 25 26 27 28 29 30 31 32 32 32 32 32 32 31 31 30 30 30 30 30 30 30 30 30 30 31 31 31 30 30 30 30 31 31 31 30 30 30 30 31 32 32 31 30 30 29 29 29 29 29 29 28 28 29 29 30 30 29 29
22 21 22 22 23 23 24 24 24 25 26 26 27 28 29 30 31 32 32 32 32 32 32 31 31 31 30 30 30 30 30 30 30 30 30 31 31 31 31 31 31 31 31 31 30 29 29 30 31 32 34 35 34 33 31 30 29 29 29 29 29 29 29 29 30 31 31 30 30
23 23 23 23 23 23 24 24 25 25 26 27 28 29 29 30 31 31 31 32 32 32 32 32 31 31 31 31 31 31 31 31 31 31 31 32 32 32 32 32 32 32 31 31 31 30 30 30 31 33 34 35 36 36 34 32 31 30 30 31 31 31 31 31 31 31 31 31 31
24 23 23 23 23 23 24 25 25 25 26 27 28 29 30 30 31 31 32 32 32 32 32 32 32 32 32 32 31 32 32 32 32 32 32 33 33 33 33 33 33 32 31 31 31 31 31 32 32 33 34 35 36 36 36 35 34 33 32 33 33 34 33 33 32 32 31 30 30
24 24 23 23 23 24 24 25 25 26 27 28 29 30 30 31 31 32 32 32 32 32 32 32 32 32 32 32 33 33 33 33 33 33 33 33 33 33 33 32 32 32 32 32 32 32 33 33 33 33 34 35 36 36 36 36 36 35 35 35 35 35 35 34 33 32 31 31 30
25 24 24 24 24 24 25 26 26 27 28 29 30 31 31 32 32 32 33 33 33 33 33 33 33 33 33 33 33 33 33 33 33 33 33 33 33 32 32 32 32 32 32 32 32 33 33 34 34 34 34 35 36 37 37 36 35 35 35 35 35 35 35 34 32 31 31 31 31
26 26 26 26 25 26 26 27 27 28 29 30 31 31 32 32 33 33 34 34 34 34 34 34 34 34 34 34 34 34 33 33 33 33 33 33 32 32 32 32 32 32 32 32 32 33 34 34 35 35 35 35 36 36 37 36 34 34 35 34 34 34 34 33 32 31 31 31 32
28 29 28 27 27 27 27 28 28 29 30 31 32 32 33 33 34 35 35 35 35 35 35 34 34 34 34 34 34 34 34 34 33 33 33 33 32 32 32 32 32 32 32 32 32 33 34 34 35 35 35 36 36 36 36 36 34 34 34 34 33 34 33 33 32 31 31 32 32
28 29 29 29 29 29 29 29 30 31 31 32 33 33 34 35 35 35 35 35 35 35 35 35 34 34 35 35 34 34 34 33 33 32 32 32 31 31 31 31 32 32 32 32 33 33 34 35 35 35 35 36 36 36 37 37 35 35 34 34 34 34 33 33 32 31 32 33 32
27 28 29 29 30 30 31 31 32 32 33 33 34 34 35 35 35 35 35 35 35 35 35 34 34 35 35 35 34 34 34 33 32 31 31 31 31 31 32 32 32 32 33 33 34 34 35 35 35 35 35 36 36 36 37 37 36 35 35 34 33 33 33 33 32 32 32 32 32
27 28 29 30 31 31 32 33 33 34 34 34 35 35 35 35 35 35 35 35 35 35 35 35 35 35 35 35 34 33 33 32 31 31 31 31 31 32 32 32 33 33 34 35 35 35 36 36 36 36 36 36 36 37 37 37 36 35 34 34 34 33 33 33 32 32 32 32 32
28 29 29 30 31 32 33 34 34 35 35 35 35 35 35 35 35 35 35 35 35 35 35 35 35 35 35 34 33 32 32 31 31 31 32 32 32 33 34 34 34 35 36 36 36 36 36 36 36 35 35 34 35 36 37 37 36 34 33 33 33 33 33 33 32 32 32 32 32
29 30 31 31 32 33 34 34 34 35 35 35 35 35 35 35 35 35 35 35 35 35 35 35 35 35 34 33 32 31 31 31 31 32 33 34 34 35 35 35 35 36 36 36 37 37 36 35 34 33 33 33 34 35 35 34 34 33 32 32 32 33 32 32 31 31 31 31 31
31 32 32 33 33 34 34 34 34 34 34 35 35 35 35 35 35 35 35 35 35 35 35 34 34 33 32 32 32 31 31 32 32 33 34 35 36 36 36 36 36 36 36 36 37 37 37 36 35 33 33 33 34 34 34 34 34 33 32 33 33 32 31 30 30 30 30 30 31
32 33 33 33 34 34 34 34 34 34 34 34 34 34 34 35 35 35 34 34 34 34 34 33 32 32 31 31 32 32 33 33 33 34 35 35 37 37 37 36 36 35 35 35 36 36 37 37 37 36 36 35 35 35 35 35 36 35 34 34 34 32 31 30 29 29 29 30 30
33 33 33 33 33 33 33 33 33 33 33 34 34 34 34 34 34 33 33 33 33 33 32 31 31 31 32 32 32 33 33 34 35 35 36 36 36 37 38 37 36 35 34 36 37 37 37 38 38 38 38 38 38 38 37 36 36 35 34 34 34 33 32 30 30 29 29 29 30
32 32 33 33 32 32 32 32 32 32 32 32 33 33 33 32 32 32 32 32 32 32 31 31 31 31 31 30 32 33 34 35 35 36 36 37 37 37 37 37 35 35 36 38 38 39 39 39 40 40 40 40 40 39 38 36 34 33 32 33 33 33 33 32 31 30 30 29 29
32 32 31 31 31 31 31 31 31 31 31 31 31 31 32 32 32 32 32 33 33 32 31 31 31 30 30 31 33 34 35 36 36 36 37 37 37 38 38 38 37 38 39 39 40 40 40 41 42 42 42 42 41 39 36 33 32 30 30 31 32 33 33 32 31 31 31 30 30
31 31 30 30 30 30 30 30 30 31 31 31 31 32 32 32 33 33 33 34 34 34 33 32 32 31 32 33 35 35 35 36 37 37 36 35 37 38 39 38 38 38 40 40 40 40 41 42 42 43 43 43 42 41 38 36 32 29 28 30 32 33 33 33 32 33 32 31 31
30 30 30 30 30 31 31 31 31 31 32 32 32 33 33 33 34 34 35 35 35 36 36 35 35 35 35 35 35 36 37 38 38 37 36 36 37 38 39 40 39 40 40 41 41 41 42 43 43 44 44 44 44 41 39 37 35 32 30 30 32 33 34 34 34 34 34 33 32
30 30 30 31 31 32 32 32 33 33 33 33 34 34 34 35 35 36 36 36 36 36 36 35 35 35 36 37 37 37 38 37 37 38 38 37 38 39 39 39 40 41 41 42 42 42 43 44 44 45 46 46 44 43 41 40 38 36 34 34 34 35 36 35 34 35 36 35 35
31 31 31 32 32 33 33 34 34 34 34 34 35 35 35 36 36 36 36 36 36 36 35 35 35 36 36 36 37 38 38 38 38 38 39 39 38 38 39 39 40 40 40 40 41 42 43 44 45 45 46 46 45 43 42 41 40 37 35 35 36 37 37 36 35 35 36 37 37
32 32 32 33 33 34 34 35 35 35 35 35 35 35 35 35 36 36 36 35 35 35 35 35 35 35 35 36 37 37 37 37 38 37 37 37 37 37 37 38 37 37 38 39 40 41 42 43 44 44 45 45 44 43 42 41 38 35 34 34 35 36 37 36 35 35 36 37 36
31 32 32 33 34 34 35 35 35 35 35 35 35 35 35 35 35 35 35 35 35 35 35 35 35 34 35 35 35 35 35 36 36 36 36 35 35 35 36 37 38 39 40 41 42 43 44 44 44 44 44 44 43 42 40 36 33 32 32 32 33 34 35 35 34 34 35 36 35
31 32 33 34 34 35 35 35 35 35 35 35 35 35 35 35 35 35 35 34 34 34 35 35 35 34 34 35 35 35 35 35 35 35 35 35 34 35 37 39 41 42 43 44 44 44 45 44 44 45 44 43 40 36 31 30 30 31 31 31 32 33 33 33 33 33 34 34 34
31 32 33 33 34 34 34 34 34 34 34 35 35 35 35 35 35 35 34 33 33 34 35 35 34 34 34 35 35 35 36 36 36 36 36 36 36 37 38 40 42 44 45 45 44 44 44 44 45 44 43 38 32 27 27 29 29 29 30 31 32 32 33 32 32 32 32 32 33
31 32 32 33 33 34 34 34 34 34 34 35 35 35 35 35 35 34 34 33 33 33 35 35 35 35 35 36 36 36 37 37 37 36 37 37 38 39 40 41 43 44 44 44 43 43 43 43 44 43 39 32 27 28 29 28 28 28 29 30 31 31 32 32 31 31 32 32 33
31 32 32 32 33 33 34 34 34 34 35 35 35 35 35 35 34 34 34 33 33 34 34 35 35 36 36 36 36 36 37 37 37 36 37 37 39 40 41 42 43 43 43 43 42 42 42 42 42 38 32 30 32 32 30 28 28 29 29 29 30 30 30 30 30 30 30 31 33
31 31 31 32 32 33 33 34 34 34 34 34 35 35 35 35 35 35 35 34 33 33 34 35 36 36 36 36 36 36 37 37 37 37 37 38 40 41 42 42 43 44 44 44 43 43 43 41 36 31 31 34 34 32 30 29 29 29 29 29 29 29 28 29 29 29 29 30 31
31 31 31 32 32 32 33 34 35 35 35 35 35 35 35 35 35 34 34 33 34 34 34 34 35 36 36 36 35 35 35 36 37 38 38 39 40 41 41 42 42 43 44 45 44 43 40 34 29 32 36 36 34 32 30 30 30 29 29 29 29 28 27 27 27 28 28 29 29
Wind_Direction
314 313 311 310 309 308 308 309 309 309 309 308 307 307 307 306 306 305 305 305 305 305 305 305 306 307 308 309 311 311 311 311 311 311 310 308 306 305 303 303 302 301 301 300 299 299 298 298 298 298 299 299 299 299 299 300 302 303 304 304 304 304 301 294 283 274 268 263 257
318 317 316 315 315 316 316 316 316 315 314 313 311 310 308 306 305 304 303 302 302 302 302 302 303 304 305 307 308 309 310 310 311 311 311 310 309 308 307 305 304 302 300 298 296 295 294 295 295 295 295 295 296 296 296 298 299 300 301 301 301 302 300 296 289 282 274 268 263
317 318 318 319 320 322 323 323 322 320 318 316 314 312 309 307 305 303 302 301 301 301 300 300 300 301 303 304 305 306 307 308 309 311 312 312 312 312 311 310 309 306 303 299 296 294 292 292 292 292 292 292 292 292 293 295 296 297 297 298 299 300 299 296 292 287 281 274 268
314 315 317 319 321 323 324 323 321 319 317 314 312 310 309 307 305 304 302 302 301 300 299 299 299 300 301 301 302 302 303 305 307 309 311 312 313 315 315 316 315 312 309 304 299 295 293 292 292 291 290 289 288 289 290 292 294 294 294 295 295 296 296 295 293 290 285 278 272
310 312 314 316 317 319 319 319 318 315 313 311 309 308 307 306 305 303 302 301 300 299 299 299 299 299 299 299 299 300 300 302 305 307 309 311 313 314 316 317 317 317 315 311 305 300 296 294 292 290 288 287 286 286 287 288 289 290 291 291 291 291 292 292 291 289 285 280 275
308 309 310 312 314 316 316 316 314 312 310 308 307 306 306 305 304 303 301 300 300 300 300 299 299 299 298 298 298 298 299 301 303 305 307 308 310 311 313 314 316 317 316 315 311 306 301 297 293 290 288 285 284 284 284 284 285 286 287 287 287 287 287 287 288 288 285 281 277
304 306 308 310 312 313 314 313 311 309 308 307 306 306 305 304 304 302 301 300 300 299 299 299 298 298 298 298 297 297 298 300 301 302 303 305 306 308 309 310 312 313 314 314 312 309 305 300 296 293 290 288 285 283 282 281 282 282 282 282 283 282 282 282 284 285 284 281 279
299 301 303 306 309 310 310 309 308 308 307 306 306 305 305 304 304 303 301 300 299 298 298 297 297 297 297 297 297 297 298 299 300 301 302 303 303 304 304 306 307 308 310 311 311 309 306 302 298 294 292 290 288 286 284 282 281 279 278 278 279 279 278 277 279 280 281 280 278
294 296 299 302 305 306 306 306 306 306 305 305 305 304 304 304 303 302 301 299 298 298 297 296 296 296 296 296 296 297 298 299 300 301 301 301 301 301 301 302 303 304 305 306 307 307 305 303 299 295 291 289 287 286 285 283 281 278 276 275 275 275 275 274 274 275 277 278 277
291 294 296 299 301 303 303 304 304 304 303 303 303 303 303 302 301 300 299 298 298 297 296 296 296 296 295 296 296 297 298 299 300 300 301 301 300 300 300 300 300 301 301 302 302 303 303 301 299 295 292 289 286 285 284 283 280 277 274 273 272 272 272 272 272 273 274 275 275
290 292 294 297 298 300 301 301 301 302 302 301 301 301 301 300 299 299 298 298 297 296 296 295 295 295 295 295 296 296 297 297 298 298 299 299 299 299 299 299 298 298 298 299 299 299 299 298 297 295 293 290 287 285 283 282 279 276 272 270 269 269 270 270 270 271 273 273 273
290 291 293 294 296 297 298 298 299 299 300 300 300 299 299 298 297 297 297 296 295 295 295 295 294 294 294 294 294 295 295 295 296 296 296 296 296 296 296 296 296 296 296 296 296 296 296 295 294 293 292 291 288 285 282 280 278 275 271 269 267 266 266 267 268 268 269 270 271
290 290 290 291 292 294 295 296 297 298 298 298 298 298 297 297 296 296 295 294 294 293 293 293 293 293 292 293 293 293 293 293 293 294 293 293 293 293 293 293 293 293 293 294 294 293 293 292 291 290 290 289 287 285 282 279 276 273 270 268 266 264 263 264 265 265 265 266 268
288 288 288 289 290 291 293 294 295 296 296 297 297 297 296 296 295 294 293 292 292 292 292 292 292 291 291 291 291 291 291 291 290 290 290 289 289 289 289 289 290 290 290 290 291 290 290 289 289 289 288 287 286 284 282 280 276 272 270 267 265 263 261 261 261 262 262 263 265
288 287 287 288 289 290 292 293 294 295 295 296 296 296 296 295 294 293 292 291 291 290 291 291 290 290 290 290 290 289 289 288 288 287 287 286 286 286 286 286 286 286 287 287 287 288 287 287 287 287 287 286 284 283 282 280 277 274 271 268 265 262 259 257 256 256 257 259 260
290 289 289 289 290 291 292 293 293 294 294 295 295 295 295 294 294 293 292 291 290 290 290 289 289 289 289 289 288 288 287 286 285 285 284 283 283 283 282 282 282 283 283 284 285 285 285 286 286 286 285 284 283 282 280 278 277 275 271 267 264 260 256 252 250 251 253 255 256
295 294 293 293 292 293 293 293 294 294 294 295 295 295 294 294 293 292 291 290 290 290 289 289 288 288 288 287 287 286 285 284 283 282 281 281 280 279 279 279 279 280 280 281 282 283 284 284 284 284 284 283 282 280 279 277 276 274 271 266 262 257 252 248 246 247 250 252 253
300 298 297 296 296 295 295 295 295 295 295 295 295 294 294 293 292 291 290 290 289 289 288 288 288 288 287 286 285 285 283 282 282 280 279 279 278 277 276 276 277 277 278 279 280 281 282 282 283 283 283 282 281 279 277 276 274 272 269 264 259 253 248 245 244 245 248 250 250
301 300 299 299 298 297 297 297 297 296 296 295 295 294 293 292 291 290 289 289 288 288 288 288 288 287 286 285 284 283 282 281 280 279 278 277 276 276 275 275 276 276 277 277 278 279 280 281 281 281 281 281 279 278 276 275 273 271 267 261 255 250 246 243 244 246 248 248 247
299 299 299 299 300 299 299 298 298 297 296 295 294 293 292 291 290 289 288 288 288 287 287 287 287 286 285 284 283 282 281 280 279 278 277 277 276 275 275 275 275 276 276 277 277 278 278 279 279 279 279 279 278 276 275 275 274 270 264 258 252 247 243 242 243 244 246 245 243
299 298 299 300 300 300 300 299 298 298 297 295 294 293 292 291 289 288 287 287 287 287 287 286 286 285 285 284 283 281 281 280 279 278 277 277 276 275 275 276 276 277 277 277 277 277 277 277 277 277 277 276 276 274 274 274 273 270 263 255 249 244 241 240 240 241 242 240 235
301 300 300 300 300 300 300 299 299 298 297 296 295 293 292 290 289 288 287 287 287 286 286 286 285 285 284 283 282 281 280 280 279 278 277 277 277 276 276 277 277 277 277 276 276 276 275 275 275 275 275 275 274 272 272 271 270 267 262 255 248 242 239 238 237 237 236 233 227
306 304 303 302 301 301 301 300 300 299 298 296 295 294 292 291 289 289 288 288 287 287 286 285 285 284 283 282 281 280 280 280 279 279 278 278 278 277 277 277 277 276 276 275 274 274 273 273 273 274 274 274 273 271 270 268 266 264 259 253 247 241 237 235 233 232 229 225 220
309 308 306 305 304 303 302 302 301 300 299 297 296 295 293 292 291 290 290 289 288 287 287 286 285 284 283 282 281 281 280 280 280 280 279 279 278 278 278 277 276 275 274 273 272 271 270 270 271 272 273 273 273 271 270 268 265 262 257 251 244 238 234 230 227 224 221 217 212
311 309 308 307 306 305 304 303 302 300 299 298 297 296 295 294 293 292 291 290 289 288 288 287 286 285 284 284 283 282 281 281 280 280 280 280 279 278 277 276 275 273 272 271 270 268 267 267 267 268 269 271 271 271 269 268 266 262 256 248 240 233 228 224 220 216 213 209 205
311 310 309 308 307 306 305 303 302 301 300 299 298 297 297 296 295 294 293 293 292 291 290 289 289 288 287 286 285 284 282 281 281 280 280 279 278 277 276 274 273 271 270 269 268 267 266 266 266 265 266 266 267 267 266 264 263 259 252 243 235 227 222 217 212 208 205 202 199
311 310 309 308 307 306 305 304 303 302 301 300 299 299 298 298 297 297 296 295 295 294 294 293 292 291 289 288 286 285 283 282 281 280 279 278 277 275 274 273 271 269 268 268 268 268 267 267 267 267 267 266 264 262 260 258 257 254 246 236 228 221 215 210 205 202 199 196 193
311 311 310 309 308 307 306 305 304 303 303 302 301 301 300 300 300 299 299 298 298 297 297 296 294 292 290 288 286 284 283 282 281 279 278 277 275 274 272 271 270 269 268 268 268 268 268 268 269 269 269 269 267 265 261 257 254 248 239 228 220 215 210 206 201 197 193 190 187
312 312 312 311 310 309 308 307 307 306 305 304 304 303 303 302 301 301 300 299 299 298 297 296 294 293 290 287 285 284 283 281 280 279 278 276 275 273 272 271 270 269 269 268 268 268 268 268 268 268 268 268 268 268 267 264 258 247 233 221 214 209 205 201 197 193 190 185 181
314 314 314 313 312 311 311 310 309 308 308 307 306 305 304 303 302 301 300 299 298 296 295 294 293 291 289 286 285 283 282 281 280 279 277 275 274 273 272 271 270 269 269 269 268 268 267 267 267 267 266 266 266 266 268 268 262 248 230 216 209 204 200 197 193 190 187 182 177
316 316 316 315 314 313 312 311 310 310 309 308 306 305 304 302 301 299 298 297 296 295 294 293 291 289 287 286 284 283 282 281 279 278 277 275 274 274 273 272 270 270 269 269 268 267 267 266 266 266 265 265 264 263 263 264 261 250 233 217 207 200 197 193 190 187 184 178 174
318 318 318 317 315 314 312 311 310 309 308 307 305 304 302 301 299 298 297 296 295 294 293 292 290 289 287 285 284 282 281 280 279 277 276 275 274 273 272 271 270 270 269 268 267 267 266 266 265 265 265 264 263 261 260 260 257 248 232 216 206 202 199 195 189 184 181 176 173
319 318 318 316 314 313 311 310 309 308 307 305 304 302 300 299 298 297 296 296 295 294 292 291 289 287 286 285 283 282 281 279 278 277 275 274 273 272 271 270 270 269 268 267 267 266 266 265 265 264 264 264 262 260 259 258 254 241 224 210 203 199 195 191 186 182 178 175 172
319 318 317 315 313 311 309 308 307 307 305 304 302 300 299 298 298 297 296 295 294 293 291 289 287 285 284 283 282 281 280 278 277 276 275 274 272 271 270 269 269 268 268 267 267 266 266 265 265 264 264 263 262 261 259 255 245 228 210 200 195 191 188 186 183 179 176 173 170
318 317 315 313 311 309 308 307 306 305 303 302 300 299 298 298 297 296 295 295 294 292 290 288 286 284 283 282 281 279 278 277 276 276 275 274 273 271 271 270 270 270 269 269 268 268 267 266 265 264 263 262 262 260 255 242 224 206 194 188 184 181 179 178 177 174 172 170 167
316 314 313 311 309 307 306 305 304 303 302 301 300 299 298 298 297 296 295 294 293 291 289 288 287 285 283 282 281 279 278 278 277 277 276 275 274 273 272 272 272 271 271 270 269 268 267 266 265 264 263 263 260 251 235 212 195 184 178 174 171 170 169 169 169 168 167 165 164
313 312 311 309 307 306 305 304 304 303 301 300 300 299 299 298 297 296 295 295 293 291 290 288 287 285 283 282 281 280 280 279 278 278 277 276 274 273 272 272 272 272 272 271 270 269 267 266 264 264 264 260 246 221 196 181 173 167 163 160 158 159 159 160 160 160 160 160 159
312 310 309 307 306 305 305 304 303 302 301 301 300 299 299 298 297 296 296 294 293 291 290 288 286 285 283 282 281 281 280 278 277 276 275 275 273 272 272 272 272 272 272 271 270 268 267 265 266 265 260 243 212 186 172 164 159 154 151 149 147 148 149 151 151 152 153 154 154
310 309 308 307 306 305 304 303 303 302 301 301 300 300 299 298 297 296 295 293 291 289 288 286 285 284 283 282 281 281 279 278 277 275 274 273 273 272 272 272 272 272 272 271 269 268 267 267 267 260 241 209 185 171 162 155 150 146 143 140 138 138 140 142 143 145 146 149 150
310 309 308 307 306 305 304 303 302 302 301 301 300 299 298 297 296 295 294 292 289 288 286 285 284 283 282 282 281 280 279 278 277 276 274 273 273 274 274 273 272 272 272 271 269 269 268 267 259 235 204 183 171 163 156 150 145 141 138 136 134 133 133 135 137 139 141 144 146
310 309 308 307 306 305 304 303 303 302 301 300 299 298 297 296 295 294 292 291 289 287 286 284 284 283 282 281 280 279 278 278 278 277 276 275 274 274 274 274 273 273 273 272 271 270 265 254 226 198 180 168 162 157 151 146 142 138 136 135 133 132 131 131 133 135 138 140 143